This demonstration page uses our WeatherBlox Daily Observations layout. Learn more.

Left ArrowRight Arrow

39.08367, -84.50855

Hourly Observations for May 7, 2016

Temp ( °F °C ) Dew Point ( °F °C ) Humidity (%) Winds ( mph kmh ) Pressure ( in mb ) Visibility ( mi km ) Precip ( " mm )
12:53 am 00:53 Clear 48 8.9 45 7.2 89 89 Calm 29.88 1012 10 16 0.00 0.00
1:53 am 01:53 Mostly Clear 47 8.3 46 7.8 97 97 Calm 29.87 1011 10 16 0.00 0.00
2:53 am 02:53 Cloudy 48 8.9 47 8.3 96 96 Calm 29.85 1011 10 16 0.00 0.00
3:53 am 03:53 Mostly Cloudy 49 9.4 47 8.3 93 93 Calm 29.83 1010 10 16 0.00 0.00
4:53 am 04:53 Clear 47 8.3 46 7.8 97 97 Calm 29.82 1010 10 16 0.00 0.00
5:53 am 05:53 Mostly Cloudy 48 8.9 47 8.3 96 96 Calm 29.80 1009 10 16 0.00 0.00
6:53 am 06:53 Partly Cloudy 48 8.9 48 8.9 100 100 Calm 29.80 1009 10 16 0.00 0.00
7:53 am 07:53 Mostly Sunny 51 10.6 50 10 96 96 Calm 29.80 1009 10 16 0.00 0.00
8:53 am 08:53 Sunny 60 15.6 51 10.6 72 72 SSW 8 13 29.79 1009 10 16 0.00 0.00
9:53 am 09:53 Sunny 65 18.3 51 10.6 61 61 SW 6 9 29.78 1008 10 16 0.00 0.00
10:53 am 10:53 Sunny 67 19.4 52 11.1 59 59 W 10 17 29.77 1008 10 16 0.00 0.00
11:53 am 11:53 Sunny 70 21.1 55 12.8 59 59 W 7 11 29.77 1008 10 16 0.00 0.00
12:53 pm 12:53 Mostly Cloudy 72 22.2 56 13.3 57 57 WSW 8 13 29.75 1008 10 16 0.00 0.00
1:53 pm 13:53 Cloudy 73 22.8 56 13.3 55 55 W 15 24 29.75 1008 10 16 0.00 0.00
2:53 pm 14:53 Partly Cloudy 71 21.7 56 13.3 59 59 W 10 17 29.75 1007 10 16 0.00 0.00
3:53 pm 15:53 Mostly Sunny 72 22.2 58 14.4 61 61 VRB 6 9 29.71 1006 10 16 0.00 0.03
4:53 pm 16:53 Mostly Cloudy 75 23.9 58 14.4 55 55 W 8 13 29.72 1006 10 16 0.00 0.00
5:53 pm 17:53 Sunny 74 23.3 55 12.8 52 52 W 22 35 29.71 1006 10 16 0.00 0.00
6:53 pm 18:53 Partly Cloudy 73 22.8 56 13.3 55 55 W 14 22 29.70 1006 10 16 0.00 0.00
7:53 pm 19:53 Sunny 71 21.7 57 13.9 61 61 WNW 10 17 29.73 1007 10 16 0.00 0.00
8:53 pm 20:53 Clear 69 20.6 57 13.9 66 66 NNW 7 11 29.75 1008 10 16 0.00 0.00
9:53 pm 21:53 Mostly Clear 67 19.4 55 12.8 66 66 NNW 5 7 29.78 1008 10 16 0.00 0.00
10:53 pm 22:53 Mostly Clear with Nearby Thunderstorms 66 18.9 53 11.7 63 63 undefined N/A 29.79 1009 10 16 0.00 0.00
11:26 pm 23:26 Cloudy with Strong Thunderstorms 61 16 54 12 77 77 WNW 10 17 29.83 1010 5 8 0.00 0.00
11:37 pm 23:37 Cloudy with Nearby Thunderstorms 59 15 57 13.9 93 93 VRB 5 7 29.80 1009 3 5 0.12 3.05

Powered by AerisWeather